CWLEESTJE Weather Reports


Display with metric or nautical units.
time (UTC)temp
F
wind
direction
speed
MPH
gust
MPH
rain 1hr
in
rain 24hr
in
rain mn
in
humidity
%
barometer
mb
20260901103524 70 306 8.0 13.0 0.00 0.08 0.00 71
20260901102529 71 319 8.0 15.0 0.00 0.08 0.00 71
20260901101543 70 315 8.0 12.0 0.00 0.08 0.00 73
20260901100527 69 292 7.0 13.0 0.00 0.08 0.00 75
20260901095541 68 291 7.0 14.0 0.00 0.28 0.00 76
20260901094525 69 325 7.0 14.0 0.00 0.28 0.00 74
20260901093537 69 310 10.0 16.0 0.00 0.28 0.00 76
20260901092606 68 313 7.0 11.0 0.00 0.28 0.00 78
20260901091549 67 301 7.0 11.0 0.00 0.28 0.00 77
20260901090601 68 302 6.0 10.0 0.00 0.28 0.00 77
20260901085523 68 348 6.0 11.0 0.00 0.59 0.00 77
20260901084537 68 304 5.0 12.0 0.00 0.59 0.00 79
20260901083551 67 329 7.0 11.0 0.00 0.59 0.00 81
20260901082529 67 288 8.0 10.0 0.00 0.59 0.00 82
20260901081543 66 348 6.0 10.0 0.00 0.59 0.00 84
20260901080528 67 277 7.0 9.0 0.00 0.59 0.00 84
20260901075537 65 290 6.0 9.0 0.00 0.79 0.00 87
20260901074542 64 281 7.0 10.0 0.00 0.79 0.00 88
20260901073535 63 254 7.0 9.0 0.00 0.79 0.00 90
20260901072537 63 275 6.0 8.0 0.00 0.79 0.00 91
20260901071549 62 268 8.0 11.0 0.00 0.79 0.00 91
20260901070529 62 288 7.0 9.0 0.00 0.79 0.00 92
20260901065603 61 287 5.0 8.0 0.00 0.94 0.00 92
20260901064526 60 269 6.0 10.0 0.00 0.94 0.00 92
20260901063540 60 266 6.0 8.0 0.00 0.94 0.00 92
20260901062544 60 254 6.0 8.0 0.00 0.94 0.00 92
20260901061537 60 252 5.0 8.0 0.00 0.94 0.00 92
20260901060541 60 263 5.0 8.0 0.00 0.94 0.00 92
20260901055549 59 284 4.0 6.0 0.00 0.94 0.00 92
20260901054533 59 287 4.0 6.0 0.00 0.94 0.00 92
20260901053526 59 250 5.0 7.0 0.00 0.94 0.00 92
20260901052531 59 254 6.0 8.0 0.00 0.94 0.00 92
20260901051545 59 246 6.0 8.0 0.00 0.94 0.00 92
20260901050530 59 260 5.0 7.0 0.00 0.94 0.00 92
20260901045542 59 267 5.0 7.0 0.00 0.94 0.00 92
20260901044547 59 271 4.0 7.0 0.00 0.94 0.00 92
20260901043535 60 279 4.0 7.0 0.00 0.94 0.00 91
20260901042538 60 277 5.0 7.0 0.00 0.94 0.00 92
20260901041530 60 280 3.0 6.0 0.00 0.94 0.00 92
20260901040536 60 279 4.0 7.0 0.00 0.94 0.00 91
20260901035526 60 277 6.0 8.0 0.00 0.94 0.00 91
20260901034531 60 281 6.0 8.0 0.00 0.94 0.00 91
20260901033545 60 275 5.0 7.0 0.00 0.94 0.00 91
20260901032530 60 267 6.0 8.0 0.00 0.94 0.00 91
20260901031540 61 270 6.0 10.0 0.00 0.94 0.00 91
20260901030523 60 275 7.0 10.0 0.00 0.94 0.00 91
20260901025528 61 274 6.0 9.0 0.00 0.94 0.00 91
20260901024542 61 266 7.0 10.0 0.00 0.94 0.00 91
20260901023527 61 244 7.0 10.0 0.00 0.94 0.00 91
20260901022539 61 274 8.0 11.0 0.00 0.94 0.00 91
20260901021523 61 269 8.0 11.0 0.00 0.94 0.00 91
20260901020538 61 261 9.0 12.0 0.00 0.94 0.00 91
20260901015607 61 260 8.0 11.0 0.00 0.94 0.00 91
20260901014531 61 267 7.0 10.0 0.00 0.94 0.00 91
20260901013544 61 260 7.0 10.0 0.00 0.94 0.00 90
20260901012527 62 259 6.0 11.0 0.00 0.94 0.00 90
20260901011600 62 251 7.0 10.0 0.00 0.94 0.00 90
20260901010543 62 259 7.0 12.0 0.00 0.94 0.00 90
20260901005537 62 247 7.0 10.0 0.00 0.94 0.00 90
20260901004537 62 247 8.0 12.0 0.00 0.94 0.00 90
20260901003548 62 254 8.0 12.0 0.00 0.94 0.00 90
20260901002553 62 253 8.0 12.0 0.00 0.94 0.00 89
20260901001525 63 257 8.0 14.0 0.00 0.94 0.00 89
20260901000600 63 251 9.0 13.0 0.00 0.94 0.00 89
20260831235542 63 248 8.0 13.0 0.00 0.94 0.00 89
20260831234536 63 234 7.0 12.0 0.00 0.94 0.00 89
20260831233535 63 252 8.0 11.0 0.00 0.94 0.00 89
20260831232549 63 246 7.0 11.0 0.00 0.94 0.00 89
20260831231532 62 277 8.0 10.0 0.00 0.94 0.00 88
20260831230546 62 246 7.0 9.0 0.00 0.94 0.00 88
20260831225529 62 251 7.0 9.0 0.00 0.94 0.00 88
20260831224534 63 258 7.0 10.0 0.00 0.94 0.00 88
20260831223546 63 250 7.0 11.0 0.00 0.94 0.00 88
20260831222535 63 255 8.0 12.0 0.00 0.94 0.00 88
20260831221540 63 254 9.0 15.0 0.00 0.94 0.00 88
20260831220525 63 263 10.0 14.0 0.00 0.94 0.00 88
20260831215537 63 246 9.0 13.0 0.00 0.94 0.19 88
20260831214550 63 225 10.0 15.0 0.00 0.94 0.19 88
20260831213534 63 230 8.0 11.0 0.00 0.94 0.19 87
20260831212547 63 265 8.0 13.0 0.00 0.94 0.19 87
20260831211527 63 241 10.0 14.0 0.00 0.94 0.19 87
20260831210526 63 261 13.0 18.0 0.00 0.94 0.19 87
20260831205538 63 253 11.0 18.0 0.00 1.14 0.19 87
20260831204552 63 265 12.0 16.0 0.00 1.14 0.19 87
20260831203556 63 238 10.0 19.0 0.00 1.14 0.19 87
20260831202547 63 266 10.0 15.0 0.00 1.14 0.19 87
20260831201530 63 360 10.0 16.0 0.00 1.14 0.19 86
20260831200544 64 242 10.0 14.0 0.00 1.14 0.19 86
20260831195528 64 248 11.0 19.0 0.00 2.32 0.19 86
20260831194528 64 213 11.0 19.0 0.00 2.32 0.19 85
20260831193602 64 245 10.0 15.0 0.00 2.32 0.19 85
20260831192533 64 249 13.0 19.0 0.00 2.32 0.19 85
20260831191538 64 239 11.0 18.0 0.00 2.32 0.19 84
20260831190531 65 241 11.0 19.0 0.00 2.32 0.19 84
20260831185534 65 252 11.0 20.0 0.00 2.32 0.19 83
20260831184545 65 218 10.0 16.0 0.00 2.32 0.19 83
20260831183545 65 254 11.0 19.0 0.00 2.32 0.19 83
20260831182537 66 266 11.0 19.0 0.00 2.32 0.19 82
20260831181542 66 240 11.0 18.0 0.00 2.32 0.19 82
20260831180527 67 221 11.0 16.0 0.00 2.32 0.19 81
20260831175601 67 227 12.0 23.0 0.00 2.32 0.19 80
20260831174533 68 261 12.0 23.0 0.00 2.32 0.19 79
20260831173537 68 238 15.0 22.0 0.00 2.32 0.19 78
20260831172547 69 275 12.0 22.0 0.00 2.32 0.19 76
20260831171530 69 250 15.0 23.0 0.00 2.32 0.19 76
20260831170544 69 277 16.0 23.0 0.00 2.32 0.19 76
20260831165557 69 303 11.0 21.0 0.00 2.32 0.19 76
20260831164539 69 246 15.0 25.0 0.00 2.32 0.19 76
20260831163532 69 273 12.0 19.0 0.00 2.32 0.19 76
20260831162536 69 284 9.0 13.0 0.00 2.32 0.19 75
20260831161529 69 296 9.0 14.0 0.00 2.32 0.19 74
20260831160528 70 264 11.0 19.0 0.00 2.32 0.19 72
20260831155600 70 281 12.0 19.0 0.00 2.32 0.19 70
20260831154553 72 279 11.0 15.0 0.00 2.32 0.19 68
20260831153536 72 305 14.0 22.0 0.00 2.32 0.19 68
20260831152609 71 285 13.0 22.0 0.00 2.32 0.19 70
20260831151532 70 292 14.0 22.0 0.00 2.32 0.19 70
20260831150542 70 284 13.0 22.0 0.00 2.32 0.19 71
20260831145524 71 263 15.0 26.0 0.00 2.32 0.19 70
20260831144527 70 271 15.0 26.0 0.00 2.32 0.19 71
20260831143539 71 292 16.0 27.0 0.00 2.32 0.19 70
20260831142524 71 288 19.0 27.0 0.00 2.32 0.19 71
20260831141538 70 293 14.0 24.0 0.00 2.32 0.19 71
20260831140552 71 285 18.0 28.0 0.00 2.32 0.19 69
20260831135535 72 281 17.0 26.0 0.00 2.32 0.19 70
20260831134535 71 300 13.0 26.0 0.00 2.32 0.19 70
20260831133526 70 273 18.0 28.0 0.00 2.32 0.19 71
20260831132600 69 271 18.0 26.0 0.00 2.32 0.19 72
20260831131543 70 286 16.0 26.0 0.00 2.32 0.19 73
20260831130527 69 294 18.0 29.0 0.00 2.32 0.19 74
20260831125541 68 265 16.0 25.0 0.00 2.32 0.19 76
20260831124525 67 273 13.0 23.0 0.00 2.32 0.19 76
20260831123539 68 285 12.0 24.0 0.00 2.32 0.19 77
20260831122539 69 287 15.0 23.0 0.00 2.32 0.19 77
20260831121532 67 278 10.0 18.0 0.00 2.32 0.19 79
20260831120536 67 249 15.0 23.0 0.00 2.32 0.19 79
20260831115529 66 304 14.0 21.0 0.00 2.32 0.19 78
20260831114531 67 273 11.0 23.0 0.00 2.32 0.19 77
20260831113525 67 279 17.0 29.0 0.04 2.32 0.19 76
20260831112549 66 273 17.0 25.0 0.08 2.32 0.19 78
20260831111536 65 287 16.0 23.0 0.08 2.32 0.19 79
20260831110549 66 262 14.0 22.0 0.08 2.32 0.19 84
20260831105555 64 238 16.0 24.0 0.08 2.32 0.19 87
20260831104527 63 248 15.0 26.0 0.12 2.32 0.19 87